User: anonymous   Login
Location: Unspecified
(42.1900°N, 71.3291°W)
Time: 12:45:35
(UTC-04:00)
Language:

Resurs 1-4 Rocket - Orbit

View from above orbital plane
View from above orbital plane
View from above satellite
View from above satellite

Ground track
Ground track

The orbit data is extracted from the following two-line orbital elements,

1 25400U 98043G   14297.94212549  .00000147  00000-0  79791-4 0  7913
2 25400 098.3517 268.5765 0008943 242.6482 117.3789 14.25265636847428
Epoch (UTC): 24 October 2014 22:36:39
Eccentricity: 0.0008943
inclination: 98.3517°
perigee height: 801 km
apogee height: 814 km
right ascension of ascending node: 268.5765°
argument of perigee: 242.6482°
revolutions per day: 14.25265636
mean anomaly at epoch: 117.3789°
orbit number at epoch: 84742

The dashed part of the orbit path shows where the satellite is in the earth's shadow,  

DLR